Location: ???????
(38.3360°N, 23.6977°E)
Time: 21:33:56
(UTC+00:00)

RESURS DK-1 - Pass Details

Date: 17 November 2025
Orbit: 524 x 535 km, 69.9° (Epoch: 10 December)

Event Time Altitude Azimuth Distance (km) Brightness Sun altitude
Rises 17:07:38 0° 325° (NW) 2,691 6.2 -22.8°
Reaches altitude 10° 17:09:59 10° 315° (NW) 1,795 5.4 -23.2°
Maximum altitude 17:13:32 31° 253° (WSW) 950 4.1 -23.9°
Drops below altitude 10° 17:17:04 10° 190° (S) 1,780 5.1 -24.6°
Sets 17:19:23 0° 180° (S) 2,664 5.9 -25.1°
